Regional Weather Roundup
Issued by NWS

Home | Current Version | Previous Version | Text Only | Print | Product List | Glossary On
Versions: 1 2 3 4 5 6 7 8 9 10 11 12 13 14 15 16 17 18 19 20 21 22 23 24 25 26 27 28 29 30 31 32 33 34 35 36 37 38 39 40 41 42 43 44 45 46 47 48 49 50
000
ASUS42 KTBW 221317
RWRFL
FLORIDA REGIONAL WEATHER ROUNDUP
NATIONAL WEATHER SERVICE TAMPA BAY RUSKIN FL
900 AM EDT SUN APR 22 2018

NOTE: "FAIR" INDICATES FEW OR NO CLOUDS BELOW 12,000 FEET WITH NO
SIGNIFICANT WEATHER AND/OR OBSTRUCTIONS TO VISIBILITY.

FLZ001>010-012>015-112-114-115-221400-
PANHANDLE FLORIDA

CITY           SKY/WX    TMP DP  RH WIND       PRES   REMARKS
PENSACOLA      CLOUDY    71  67  87 SE14      30.03S
PENSACOLA NAS  PTSUNNY   72  68  87 SE14      30.02S
MILTON NAS     CLOUDY    67  66  97 E7        30.04S
CRESTVIEW      CLOUDY    67  63  87 SE8       30.08S
DUKE FIELD     FAIR      68  64  85 SE7       30.06R
VALPARAISO     CLOUDY    71  67  89 SE18G26   30.05R FOG
MARY ESTHER    CLOUDY    70  68  93 SE16G24   30.03
PANAMA CITY    CLOUDY    69  65  86 E7        30.07F
TYNDALL AFB    FAIR      71  67  85 SE14      30.08F
APALACHICOLA   CLOUDY    72  68  87 E15G23    30.10S

STATION/POSITION SKY/WX   TEMP    WIND        PRES    WAVE   SWELL
                          AIR SEA DIR/SP/G            HT/PER HT/PER
                          (F)     (DEG/KT/KT) (MB)    (FT/S) (FT/S)
30.1N   87.6W              71     130/ 12/ 14 1016.5
29.2N   88.2W                 71  130/ 14/ 16 1016.4
28.8N   86.0W              73 73  120/ 16/ 17 1017.7S   4/ 5
PANAMA CITY BEAC           71 69  120/ 15/ 19 1018.5F
TOWER C                    70     120/ 23/ 25 1019.6F

$$
FLZ011-016>038-118-127-128-134-139-239-221400-
NORTH FLORIDA

CITY           SKY/WX    TMP DP  RH WIND       PRES   REMARKS
MARIANNA       CLOUDY    69  62  78 E9        30.12S
TALLAHASSEE    LGT RAIN  69  63  81 E12       30.15S
PERRY          PTSUNNY   70  63  77 E8        30.17R
LIVE OAK       PTSUNNY   70  63  78 E7G14     30.19R
CROSS CITY     PTSUNNY   72  65  80 E12       30.16R
LAKE CITY      PTSUNNY   66  61  82 E8        30.19R
GAINESVILLE    FAIR      72  63  73 E12       30.19S
WILLISTON        N/A     73  64  73 E9G15     30.16S
PALATKA        PTSUNNY   72  64  78 E12       30.19S
MAYPORT NAS    CLOUDY    70  62  76 E14       30.21R
JACKSONVILLE   PTSUNNY   71  60  68 E14G22    30.20S
JAX NAS        PTSUNNY   71  61  70 E16       30.21R
JAX CECIL      MOSUNNY   70  63  78 E10       30.19S
FERNANDINA BEA CLOUDY    70  59  69 E9        30.21S
ST AUGUSTINE   PTSUNNY   71  64  78 E14       30.21R
PALM COAST     CLOUDY    72  63  73 E14       30.19R

STATION/POSITION SKY/WX   TEMP    WIND        PRES    WAVE   SWELL
                          AIR SEA DIR/SP/G            HT/PER HT/PER
                          (F)     (DEG/KT/KT) (MB)    (FT/S) (FT/S)
SHELL POINT      NOT AVBL
KEATON BEACH               69      80/ 13/ 17 1021.2R
CEDAR KEY                  70     100/ 15/ 17 1021.1R
FERNANDINA                 70 66  100/  4/ 10 1024.2S
30.7N   81.3W                 66                N/A     5/ 7
MAYPORT                    69 66   90/ 11/ 15 1023.2R
31.4N   80.9W              66 64  100/ 10/ 12 1024.0R   5/ 6   3/ 6
ST AUGUSTINE               69 67  100/ 12/ 14 1023.0R

$$
FLZ040-043>046-052-053-057-058-063-144-221400-
INTERIOR CENTRAL FLORIDA

CITY           SKY/WX    TMP DP  RH WIND       PRES   REMARKS
OCALA          FAIR      72  64  76 VRB7      30.17R
LEESBURG       PTSUNNY   72  66  81 E9        30.17S
SANFORD        CLOUDY    73  64  73 E14       30.17R
ORLANDO EXEC   HVY RAIN  72  68  87 E5        30.17R FOG
ORLANDO INTL   PTSUNNY   72  68  87 E8        30.17R
KISSIMMEE      CLOUDY    72  69  90 E10       30.17R
WINTER HAVEN   CLOUDY    73  68  84 E12       30.16S
LAKELAND       CLOUDY    73  68  83 E9G16     30.15R
BARTOW         DRIZZLE   72  70  94 E9        30.15R
SEBRING        CLOUDY    76  70  80 E10       30.14R
OKEECHOBEE     FAIR      73  70  88 E6        30.12S

$$
FLZ041-047-054-059-064-141-147-221400-
EAST CENTRAL FLORIDA

CITY           SKY/WX    TMP DP  RH WIND       PRES   REMARKS
ORMOND BEACH   MOSUNNY   72  63  73 E14G21    30.19R
DAYTONA BEACH  PTSUNNY   73  64  73 E14G20    30.18R
DELAND         CLOUDY    73  64  73 E14G22    30.18R
NEW SMYRNA BEA PTSUNNY   73  63  68 E15       30.19R
JFK SPACE CTR  FAIR      75  67  75 E15G23    30.16R
TITUSVILLE     PTSUNNY   75  66  73 E16       30.17R
CAPE CANAVERAL FAIR      75  66  75 E15G25    30.14S
PATRICK AFB    FAIR      75  69  82 E25       30.14R
MELBOURNE      CLOUDY    76  69  79 E21G29    30.14R
VERO BEACH     RAIN      73  71  93 E14       30.14R VSB 1
FT PIERCE      HVY RAIN  70  70 100 NE9G26    30.12F FOG
STUART         PTSUNNY   75  68  78 E14G28    30.14R

STATION/POSITION SKY/WX   TEMP    WIND        PRES    WAVE   SWELL
                          AIR SEA DIR/SP/G            HT/PER HT/PER
                          (F)     (DEG/KT/KT) (MB)    (FT/S) (FT/S)
28.5N   80.2W              74 72   80/ 19/ 25 1021.7
28.9N   78.5W              72 76   80/ 19/ 23 1023.1R   7/ 7   2/14
TRIDENT PIER               74 76   70/ 15/ 23 1022.5R
28.4N   80.5W                 75                N/A     5/ 7
27.5N   80.2W                 75                N/A     7/ 8

$$
FLZ050-056-061-142-242-148-248-149-249-151-251-155-255-
160-260-221400-
WEST CENTRAL FLORIDA

CITY           SKY/WX    TMP DP  RH WIND       PRES   REMARKS
CRYSTAL RIVER  FAIR      72  64  78 E7        30.15S
INVERNESS      FAIR      72  68  88 E12       30.16S
BROOKSVILLE    FAIR      74  65  73 E12       30.15R
CLEARWATER AIR CLOUDY    72  68  88 E6G16     30.13R
ST PETE CLEARW CLOUDY    74  69  85 E14       30.12R
TAMPA INTL     PTSUNNY   75  68  78 E10       30.13S
TAMPA EXEC     CLOUDY    73  68  83 E8        30.15R
PLANT CITY     CLOUDY    75  68  78 E7G16     30.17R
MACDILL AFB    FAIR      74  68  82 E15       30.12S
PETER O KNIGHT CLOUDY    73  70  88 E10       30.13S
ST PETERSBURG  CLOUDY    74  71  91 E17       30.11S
SARASOTA       CLOUDY    73  70  90 E13       30.10S
VENICE         FAIR      73  72  94 E13       30.11S

STATION/POSITION SKY/WX   TEMP    WIND        PRES    WAVE   SWELL
                          AIR SEA DIR/SP/G            HT/PER HT/PER
                          (F)     (DEG/KT/KT) (MB)    (FT/S) (FT/S)
27.3N   84.2W                 74                N/A     3/ 4
CLEARWATER BEACH           74 74   90/ 10/ 17 1019.8R
MIDDLE TAMPA BAY           72     100/ 12/ 14 1020.1R
VENICE                     72 76   80/  9/ 11 1019.4S

$$
FLZ066-069-070-075>078-162-262-165-265-221400-
SOUTHWEST FLORIDA AND KEYS

CITY           SKY/WX    TMP DP  RH WIND       PRES   REMARKS
PUNTA GORDA    FAIR      74  69  85 E8        30.13R
FT MYERS       FAIR      75  72  90 E6        30.09S
SOUTHWEST INTL FAIR      74  73  97 E9        30.10R
NAPLES         FAIR      75  74  96 E8        30.08S
MARCO ISLAND   FAIR      73  71  93 NE6       30.09R
IMMOKALEE      FAIR      75  72  88 E9        30.11R
MARATHON       FAIR      81  73  76 E6        30.06R
KEY WEST NAS   PTSUNNY   80  72  76 E13       30.05S
KEY WEST INTL  FAIR      79  73  82 E9        30.06R

STATION/POSITION SKY/WX   TEMP    WIND        PRES    WAVE   SWELL
                          AIR SEA DIR/SP/G            HT/PER HT/PER
                          (F)     (DEG/KT/KT) (MB)    (FT/S) (FT/S)
NAPLES                     74 78              1018.6R
26.0N   85.6W              78 79  120/ 14/ 17 1017.0
DRY TORTUGAS               77      90/  5/  5 1017.6R
SAND KEY                   77                 1017.7R
SOMBRERO KEY               78      80/ 11/ 13 1017.1R
LONG KEY                   79 80   90/ 11/ 12 1017.9R
MOLASSES REEF              79 79  130/ 14/ 16 1018.5R

$$
FLZ067-068-071>074-168-172>174-221400-
SOUTHEAST FLORIDA

CITY           SKY/WX    TMP DP  RH WIND       PRES   REMARKS
W PALM BEACH   PTSUNNY   77  70  79 E18       30.11R
FT LAUDER-EXEC TSTM      78  75  90 E16       30.08S
FT LAUDERDALE  LGT RAIN  77  75  94 E16       30.07R
POMPANO BEACH  PTSUNNY   79  74  84 E16       30.08S
PEMBROKE PINES LGT RAIN  78  72  81 SE14      30.09F
OPA LOCKA      PTSUNNY   77  73  87 E8        30.09R
MIAMI          CLOUDY    74  70  87 E12       30.09R
WEST KENDALL   FAIR      79  72  79 SE10      30.08R
HOMESTEAD      FAIR      80  73  76 E12       30.07R

STATION/POSITION SKY/WX   TEMP    WIND        PRES    WAVE   SWELL
                          AIR SEA DIR/SP/G            HT/PER HT/PER
                          (F)     (DEG/KT/KT) (MB)    (FT/S) (FT/S)
PORT EVERGLADES            77      90/  8/ 16 1018.6
VIRGINIA KEY               75 80   80/ 11/ 14 1018.2R
LAKE WORTH                 76 78  100/ 17/ 21 1020.3R
FOWEY ROCKS                77 78   90/ 15/ 17 1019.2R
SETTLEMENT POINT           74     100/ 18/ 21 1020.0S

$$




USA.gov is the U.S. government's official web portal to all federal, state and local government web resources and services.